Location: Peterborough
(44.3091°N, 78.3197°W)
Time: 15:57:37
(UTC-04:00)

Transit 4A - Pass Details

Date: 28 March 2023
Orbit: 864 x 980 km, 66.8° (Epoch: 04 June)

Event Time Altitude Azimuth Distance (km) Brightness Sun altitude
Rises 16:29:09 0° 322° (NW) 3,577 11.1 31.3°
Reaches altitude 10° 16:31:48 10° 315° (NW) 2,648 10.6 30.9°
Maximum altitude 16:37:28 39° 248° (WSW) 1,391 11.2 30.0°
Drops below altitude 10° 16:43:14 10° 182° (S) 2,697 10.8 29.1°
Sets 16:45:57 0° 175° (S) 3,650 11.3 28.6°
